Hourly Weather Cedynia

Today, 16 June, Wednesday

Time Temperature Precipitation Wind Pressure Humidity
00:00 +10°C° 0 mm 2 mps 764 mmHg 77%
01:00 +10°C° 0 mm 2 mps 764 mmHg 79%
02:00 +9°C° 0 mm 2 mps 764 mmHg 80%
03:00 +9°C° 0 mm 2 mps 764 mmHg 82%
04:00 +9°C° 0 mm 2 mps 763 mmHg 83%
05:00 +12°C° 0 mm 2 mps 763 mmHg 76%
06:00 +13°C° 0 mm 2 mps 763 mmHg 70%
07:00 +15°C° 0 mm 2 mps 764 mmHg 64%
08:00 +17°C° 0 mm 2 mps 763 mmHg 58%
09:00 +19°C° 0 mm 2 mps 763 mmHg 53%
10:00 +20°C° 0 mm 2 mps 763 mmHg 48%
11:00 +23°C° 0 mm 2 mps 763 mmHg 45%
12:00 +24°C° 0 mm 2 mps 762 mmHg 43%
13:00 +25°C° 0 mm 2 mps 762 mmHg 41%
14:00 +26°C° 0 mm 2 mps 762 mmHg 40%
15:00 +26°C° 0 mm 2 mps 762 mmHg 40%
16:00 +26°C° 0 mm 2 mps 761 mmHg 39%
17:00 +25°C° 0 mm 2 mps 761 mmHg 45%
18:00 +25°C° 0 mm 2 mps 761 mmHg 52%
19:00 +24°C° 0 mm 2 mps 761 mmHg 58%
20:00 +21°C° 0 mm 2 mps 761 mmHg 64%
21:00 +19°C° 0 mm 3 mps 761 mmHg 70%
22:00 +18°C° 0 mm 3 mps 761 mmHg 75%
23:00 +18°C° 0 mm 3 mps 761 mmHg 80%

Tomorrow, 17 June, Thursday

Time Temperature Precipitation Wind Pressure Humidity
00:00 +17°C° 0 mm 3 mps 761 mmHg 86%
01:00 +17°C° 0 mm 3 mps 761 mmHg 91%
02:00 +17°C° 0 mm 3 mps 761 mmHg 92%
03:00 +17°C° 0 mm 3 mps 761 mmHg 93%
04:00 +17°C° 0 mm 3 mps 761 mmHg 94%
05:00 +19°C° 0 mm 3 mps 761 mmHg 88%
06:00 +20°C° 0 mm 4 mps 761 mmHg 81%
07:00 +22°C° 0 mm 4 mps 761 mmHg 75%
08:00 +25°C° 0 mm 4 mps 761 mmHg 68%
09:00 +27°C° 0 mm 4 mps 761 mmHg 61%
10:00 +29°C° 0 mm 5 mps 761 mmHg 54%
11:00 +30°C° 0 mm 5 mps 761 mmHg 50%
12:00 +32°C° 0 mm 4 mps 760 mmHg 46%
13:00 +33°C° 0 mm 4 mps 760 mmHg 43%
14:00 +33°C° 0 mm 4 mps 760 mmHg 42%
15:00 +33°C° 0 mm 4 mps 760 mmHg 42%
16:00 +34°C° 0 mm 4 mps 760 mmHg 41%
17:00 +32°C° 0 mm 4 mps 760 mmHg 47%
18:00 +30°C° 0 mm 4 mps 760 mmHg 53%
19:00 +28°C° 0 mm 4 mps 760 mmHg 59%
20:00 +27°C° 0 mm 5 mps 760 mmHg 61%
21:00 +26°C° 0 mm 5 mps 760 mmHg 64%
22:00 +25°C° 0 mm 5 mps 760 mmHg 66%
23:00 +23°C° 0 mm 4 mps 760 mmHg 71%

Day after tomorrow, 18 June, Friday

Time Temperature Precipitation Wind Pressure Humidity
00:00 +22°C° 0 mm 4 mps 760 mmHg 77%
01:00 +21°C° 0 mm 3 mps 760 mmHg 82%
02:00 +20°C° 0 mm 3 mps 760 mmHg 83%
03:00 +19°C° 0 mm 3 mps 760 mmHg 85%
04:00 +19°C° 0 mm 3 mps 760 mmHg 86%
05:00 +20°C° 0 mm 3 mps 760 mmHg 80%
06:00 +22°C° 0 mm 4 mps 760 mmHg 74%
07:00 +23°C° 0 mm 4 mps 760 mmHg 68%
08:00 +27°C° 0 mm 4 mps 760 mmHg 61%
09:00 +29°C° 0 mm 4 mps 760 mmHg 54%
10:00 +32°C° 0 mm 4 mps 760 mmHg 47%
11:00 +33°C° 0 mm 4 mps 760 mmHg 43%
12:00 +34°C° 0 mm 4 mps 760 mmHg 39%
13:00 +35°C° 0 mm 4 mps 760 mmHg 35%
14:00 +35°C° 0 mm 4 mps 759 mmHg 35%
15:00 +35°C° 0 mm 4 mps 759 mmHg 35%
16:00 +35°C° 0 mm 4 mps 759 mmHg 35%
17:00 +34°C° 0 mm 4 mps 759 mmHg 41%
18:00 +31°C° 0 mm 3 mps 759 mmHg 47%
19:00 +30°C° 0 mm 3 mps 759 mmHg 53%
20:00 +28°C° 0 mm 3 mps 759 mmHg 56%
21:00 +27°C° 0 mm 3 mps 759 mmHg 59%
22:00 +25°C° 0 mm 3 mps 760 mmHg 62%
23:00 +24°C° 0 mm 3 mps 760 mmHg 65%

19 June, Saturday

Time Temperature Precipitation Wind Pressure Humidity
00:00 +22°C° 0 mm 3 mps 760 mmHg 68%
01:00 +21°C° 0 mm 3 mps 760 mmHg 70%
02:00 +21°C° 0 mm 3 mps 760 mmHg 71%
03:00 +20°C° 0 mm 3 mps 760 mmHg 71%
04:00 +20°C° 0 mm 3 mps 760 mmHg 72%
05:00 +21°C° 0 mm 3 mps 760 mmHg 69%
06:00 +24°C° 0 mm 3 mps 760 mmHg 66%
07:00 +25°C° 0 mm 3 mps 760 mmHg 63%
08:00 +27°C° 0 mm 4 mps 760 mmHg 58%
09:00 +29°C° 0 mm 4 mps 760 mmHg 54%
10:00 +32°C° 0 mm 4 mps 760 mmHg 50%
11:00 +33°C° 0 mm 4 mps 760 mmHg 47%
12:00 +34°C° 0 mm 4 mps 760 mmHg 44%
13:00 +35°C° 0 mm 3 mps 760 mmHg 41%
14:00 +35°C° 0 mm 3 mps 760 mmHg 41%
15:00 +36°C° 0 mm 3 mps 760 mmHg 40%
16:00 +36°C° 0 mm 2 mps 759 mmHg 39%
17:00 +34°C° 0.1 mm 3 mps 760 mmHg 47%
18:00 +31°C° 0.1 mm 3 mps 760 mmHg 55%
19:00 +29°C° 0.1 mm 4 mps 760 mmHg 63%
20:00 +27°C° 0.2 mm 3 mps 761 mmHg 70%
21:00 +25°C° 0.2 mm 3 mps 761 mmHg 78%
22:00 +22°C° 0.2 mm 3 mps 762 mmHg 86%
23:00 +21°C° 0 mm 2 mps 762 mmHg 88%

20 June, Sunday

Time Temperature Precipitation Wind Pressure Humidity
00:00 +20°C° 0 mm 2 mps 761 mmHg 91%
01:00 +20°C° 0 mm 2 mps 761 mmHg 94%
02:00 +19°C° 0 mm 2 mps 761 mmHg 94%
03:00 +19°C° 0 mm 2 mps 761 mmHg 95%
04:00 +19°C° 0 mm 2 mps 761 mmHg 95%
05:00 +20°C° 0 mm 2 mps 761 mmHg 89%
06:00 +22°C° 0 mm 3 mps 761 mmHg 84%
07:00 +24°C° 0 mm 3 mps 760 mmHg 78%
08:00 +26°C° 0 mm 3 mps 760 mmHg 71%
09:00 +29°C° 0 mm 3 mps 760 mmHg 63%
10:00 +31°C° 0 mm 3 mps 760 mmHg 56%
11:00 +33°C° 0 mm 3 mps 759 mmHg 50%
12:00 +35°C° 0 mm 3 mps 759 mmHg 44%
13:00 +36°C° 0 mm 3 mps 758 mmHg 38%
14:00 +36°C° 0 mm 4 mps 758 mmHg 38%
15:00 +37°C° 0 mm 4 mps 758 mmHg 37%
16:00 +37°C° 0 mm 4 mps 757 mmHg 37%
17:00 +35°C° 0 mm 4 mps 757 mmHg 42%
18:00 +33°C° 0 mm 5 mps 757 mmHg 47%
19:00 +32°C° 0 mm 5 mps 757 mmHg 53%
20:00 +29°C° 0 mm 5 mps 757 mmHg 54%
21:00 +28°C° 0 mm 4 mps 757 mmHg 55%
22:00 +27°C° 0 mm 4 mps 758 mmHg 56%
23:00 +26°C° 0 mm 4 mps 758 mmHg 61%

21 June, Monday

Time Temperature Precipitation Wind Pressure Humidity
00:00 +25°C° 0 mm 4 mps 757 mmHg 65%
01:00 +24°C° 0 mm 3 mps 757 mmHg 70%
02:00 +22°C° 0 mm 3 mps 757 mmHg 73%
03:00 +22°C° 0 mm 3 mps 757 mmHg 77%
04:00 +21°C° 0 mm 3 mps 757 mmHg 80%
05:00 +22°C° 0 mm 4 mps 757 mmHg 77%
06:00 +25°C° 0 mm 4 mps 757 mmHg 73%
07:00 +26°C° 0 mm 4 mps 757 mmHg 70%
08:00 +28°C° 0 mm 4 mps 757 mmHg 64%
09:00 +30°C° 0 mm 5 mps 757 mmHg 57%
10:00 +33°C° 0 mm 5 mps 756 mmHg 51%
11:00 +34°C° 0 mm 5 mps 756 mmHg 47%
12:00 +35°C° 0 mm 4 mps 756 mmHg 44%
13:00 +36°C° 0 mm 4 mps 756 mmHg 41%
14:00 +36°C° 0 mm 4 mps 755 mmHg 39%
15:00 +36°C° 0 mm 5 mps 755 mmHg 38%
16:00 +36°C° 0 mm 5 mps 755 mmHg 37%
17:00 +34°C° 0 mm 5 mps 755 mmHg 42%
18:00 +33°C° 0 mm 5 mps 754 mmHg 47%
19:00 +30°C° 0 mm 6 mps 754 mmHg 52%
20:00 +29°C° 0 mm 6 mps 754 mmHg 54%
21:00 +28°C° 0 mm 6 mps 754 mmHg 57%
22:00 +27°C° 0 mm 6 mps 754 mmHg 59%
23:00 +26°C° 0 mm 5 mps 754 mmHg 62%
Show more

We Need Your Consent

Meteoprog and our Service Providers may store and access personal data such as cookies, device identifiers or other similar technologies on your device and process such data to personalise content and ads, as well as provide social media features and to analyse the traffic.

  • Store and/or access information on your device

    Cookies, device identifiers or other information can be stored or accessed on your device for the purposes indicated above.

  • Personalised ads and content, ad and content measurement, audience insights, and products development

    Ads and content can be personalised based on a profile. More data can be added to better personalise ads and content. Ad and content performance can be measured. Insights about the audience who saw the ads and content can be derived. Such data can be used to develop or improve user’s experience, systems and software.

By clicking ‘I Agree’ you will allow the use of indicated cookies, device identifiers, web beacons or other similar technologies. Your settings can be changed in the browser on your device.

For certain purposes, legitimate interests may be relied on, rather than consent. You can read more about this in our Privacy and Cookie Policy.